TimeCST,TemperatureF,Dew PointF,Humidity,Sea Level PressureIn,VisibilityMPH,Wind Direction,Wind SpeedMPH,Gust SpeedMPH,PrecipitationIn,Events,Conditions,WindDirDegrees,DateUTC
12:53 AM,-8.0,-13.0,79,30.14,10.0,SW,3.5,-,N/A,,Clear,220,2012-12-29 06:53:00
1:53 AM,-9.0,-14.1,79,30.14,10.0,Calm,Calm,-,N/A,,Clear,0,2012-12-29 07:53:00
2:53 AM,-11.0,-16.1,78,30.16,10.0,SW,4.6,-,N/A,,Clear,220,2012-12-29 08:53:00
3:53 AM,-11.0,-16.1,78,30.15,10.0,South,4.6,-,N/A,,Partly Cloudy,190,2012-12-29 09:53:00
4:53 AM,-11.9,-17.0,78,30.16,10.0,WSW,4.6,-,N/A,,Clear,240,2012-12-29 10:53:00
5:53 AM,-14.1,-18.9,79,30.15,10.0,South,4.6,-,N/A,,Clear,190,2012-12-29 11:53:00
6:26 AM,-11.2,-18.4,70,30.05,10.0,SSW,4.6,-,N/A,,Scattered Clouds,200,2012-12-29 12:26:00
6:35 AM,-11.2,-16.6,77,30.06,9.0,SSW,4.6,-,N/A,,Mostly Cloudy,210,2012-12-29 12:35:00
6:42 AM,-9.4,-14.8,77,30.06,1.8,Calm,Calm,-,N/A,,Haze,0,2012-12-29 12:42:00
6:47 AM,-9.4,-11.2,92,30.06,0.8,Calm,Calm,-,N/A,,Mist,0,2012-12-29 12:47:00
6:53 AM,-9.0,-11.0,91,30.17,0.5,Calm,Calm,-,N/A,Fog,Light Freezing Fog,0,2012-12-29 12:53:00
7:07 AM,-11.2,-16.6,77,30.06,1.8,Calm,Calm,-,N/A,,Haze,0,2012-12-29 13:07:00
7:09 AM,-11.2,-16.6,77,30.06,3.0,Calm,Calm,-,N/A,,Haze,0,2012-12-29 13:09:00
7:33 AM,-9.4,-16.6,71,30.05,1.8,South,5.8,-,N/A,,Haze,170,2012-12-29 13:33:00
7:35 AM,-9.4,-14.8,77,30.05,0.8,South,5.8,-,N/A,,Haze,180,2012-12-29 13:35:00
7:45 AM,-2.2,-5.8,85,30.06,0.2,South,6.9,-,N/A,Fog,Light Freezing Fog,190,2012-12-29 13:45:00
7:53 AM,-0.9,-2.9,91,30.16,0.2,South,6.9,-,N/A,Fog,Light Freezing Fog,180,2012-12-29 13:53:00
8:04 AM,-2.2,-7.6,78,30.05,0.5,South,5.8,-,N/A,Fog,Light Freezing Fog,170,2012-12-29 14:04:00
8:12 AM,-5.8,-9.4,84,30.05,1.5,South,5.8,-,N/A,,Overcast,170,2012-12-29 14:12:00
8:19 AM,-5.8,-9.4,84,30.05,0.8,South,3.5,-,N/A,,Mist,180,2012-12-29 14:19:00
8:22 AM,-5.8,-7.6,92,30.05,0.2,South,4.6,-,N/A,Fog,Light Freezing Fog,180,2012-12-29 14:22:00
8:46 AM,-2.2,-5.8,85,30.05,0.2,South,6.9,-,N/A,Fog,Light Freezing Fog,190,2012-12-29 14:46:00
8:53 AM,-2.0,-6.0,83,30.17,0.2,SSW,5.8,-,N/A,Fog,Light Freezing Fog,210,2012-12-29 14:53:00
9:53 AM,-0.9,-5.1,83,30.19,0.2,SSW,4.6,-,N/A,Fog,Light Freezing Fog,210,2012-12-29 15:53:00
10:05 AM,-0.4,-4.0,85,30.07,0.2,SSW,5.8,-,N/A,Fog,Light Freezing Fog,210,2012-12-29 16:05:00
10:32 AM,-0.4,-2.2,92,30.08,0.5,Calm,Calm,-,N/A,Fog,Light Freezing Fog,0,2012-12-29 16:32:00
10:43 AM,1.4,-2.2,85,30.08,1.0,Calm,Calm,-,N/A,,Mist,0,2012-12-29 16:43:00
10:51 AM,3.2,-0.4,85,30.08,1.5,Calm,Calm,-,N/A,,Scattered Clouds,0,2012-12-29 16:51:00
10:53 AM,3.9,-0.9,80,30.19,2.0,Calm,Calm,-,N/A,,Haze,0,2012-12-29 16:53:00
11:02 AM,3.2,-2.2,78,30.08,4.0,South,3.5,-,N/A,,Haze,180,2012-12-29 17:02:00
11:53 AM,3.9,-0.9,80,30.20,7.0,SSW,3.5,-,N/A,,Clear,200,2012-12-29 17:53:00
12:53 PM,6.1,1.0,80,30.18,8.0,SSW,4.6,-,N/A,,Clear,200,2012-12-29 18:53:00
1:53 PM,9.0,3.0,77,30.17,10.0,Calm,Calm,-,N/A,,Clear,0,2012-12-29 19:53:00
2:53 PM,12.9,3.9,67,30.17,10.0,Calm,Calm,-,N/A,,Clear,0,2012-12-29 20:53:00
3:53 PM,10.0,3.0,73,30.19,10.0,SW,6.9,-,N/A,,Clear,220,2012-12-29 21:53:00
4:53 PM,1.4,-2.2,85,30.06,10.0,SSE,4.6,-,N/A,,Clear,160,2012-12-29 22:53:00
5:53 PM,-0.0,-4.0,83,30.20,10.0,South,6.9,-,N/A,,Clear,180,2012-12-29 23:53:00
6:53 PM,-0.4,-4.0,85,30.08,10.0,SSE,6.9,-,N/A,,Clear,160,2012-12-30 00:53:00
7:53 PM,1.0,-2.9,83,30.18,10.0,Calm,Calm,-,N/A,,Clear,0,2012-12-30 01:53:00
8:53 PM,-0.0,-4.0,83,30.19,10.0,South,6.9,-,N/A,,Clear,170,2012-12-30 02:53:00
9:53 PM,1.0,-2.9,83,30.17,10.0,South,4.6,-,N/A,,Clear,170,2012-12-30 03:53:00
10:53 PM,1.9,-2.0,83,30.17,10.0,South,6.9,-,N/A,,Clear,170,2012-12-30 04:53:00
11:53 PM,3.0,-0.9,84,30.15,10.0,SSE,5.8,-,N/A,,Clear,160,2012-12-30 05:53:00